Weather History for Mount Pleasant, IA

Change the Weather History Date:

Monday, July 22, 2013

  Actual Average Record
Temperature  
Mean Temperature 77 °F -  
Max Temperature 89 °F 84 °F 106 °F (1983)
Min Temperature 65 °F 64 °F 54 °F (1966)
Cooling Degree Days 12    
Growing Degree Days 27 (Base 50)    
Moisture  
Dew Point 68 °F    
Average Humidity 76    
Maximum Humidity 95    
Minimum Humidity 53    
Precipitation  
Precipitation 0.01 in - - ()
Sea Level Pressure  
Sea Level Pressure 29.83 in    
Wind  
Wind Speed 3 mph (SSW)    
Max Wind Speed 18 mph    
Max Gust Speed 33 mph    
Visibility 7 miles    
Events Fog    
Averages and records for this station are not official NWS values.
T = Trace of Precipitation, MM = Missing Value Source: NWS Daily Summary

Daily Weather History Graph

Daily Weather History Graph

Search for Another Location

Airport:

Trip Planner

Search our weather history database for the weather conditions in past years. The results will help you decide how hot, cold, wet, or windy it might be!

Date:

Astronomy

Jul. 22, 2013 Rise Set
Actual Time 5:53 AM CDT 8:31 PM CDT
Civil Twilight 5:21 AM CDT 9:03 PM CDT
Nautical Twilight 4:41 AM CDT 9:42 PM CDT
Astronomical Twilight 3:56 AM CDT 10:27 PM CDT
Moon 8:16 PM CDT (7/22) 5:50 AM CDT (7/22)
Length of Visible Light 15h 41m
Length of Day
14h 38m
Full, 100% of the Moon is Illuminated
Jul 22
Full
Jul 22
Full
Jul 29
Last Quarter
Aug 6
New
Aug 14
First Quarter

Hourly Weather History & Observations

Time (CDT) Temp. Heat Index Dew Point Humidity Pressure Visibility Wind Dir Wind Speed Gust Speed Precip Events Conditions
12:15 AM 68.9 °F - 67.1 °F 94% 29.89 in 5.0 mi Calm Calm - N/A   Overcast
12:35 AM 68.9 °F - 66.9 °F 93% 29.88 in 5.0 mi Calm Calm - N/A   Overcast
12:55 AM 68.9 °F - 66.7 °F 93% 29.88 in 5.0 mi Calm Calm - N/A   Mostly Cloudy
1:15 AM 68.0 °F - 65.8 °F 93% 29.88 in 3.0 mi Calm Calm - N/A   Scattered Clouds
1:35 AM 67.3 °F - 65.3 °F 93% 29.87 in 0.5 mi Calm Calm - N/A Fog Fog
1:55 AM 66.2 °F - 64.4 °F 94% 29.86 in 1.0 mi Calm Calm - N/A   Mostly Cloudy
2:15 AM 65.8 °F - 64.0 °F 94% 29.85 in 0.5 mi Calm Calm - N/A Fog Fog
2:35 AM 65.3 °F - 63.5 °F 94% 29.85 in 0.2 mi Calm Calm - N/A Fog Fog
2:55 AM 65.5 °F - 63.7 °F 94% 29.85 in 0.5 mi Calm Calm - N/A Fog Fog
3:15 AM 66.2 °F - 64.4 °F 94% 29.84 in 0.8 mi Calm Calm - N/A   Overcast
3:35 AM 66.2 °F - 64.4 °F 94% 29.83 in 0.8 mi Calm Calm - N/A   Overcast
3:55 AM 65.3 °F - 63.5 °F 94% 29.83 in 0.2 mi Calm Calm - N/A Fog Fog
4:15 AM 65.3 °F - 63.5 °F 94% 29.83 in 1.0 mi Calm Calm - N/A   Mostly Cloudy
4:35 AM 65.3 °F - 63.7 °F 94% 29.83 in 0.5 mi Calm Calm - N/A Fog Fog
4:55 AM 66.6 °F - 64.9 °F 95% 29.84 in 0.2 mi Calm Calm - N/A Fog Fog
5:15 AM 66.4 °F - 64.8 °F 95% 29.84 in 0.2 mi Calm Calm - N/A Fog Fog
5:35 AM 66.2 °F - 64.6 °F 94% 29.85 in 0.2 mi Calm Calm - N/A Fog Fog
5:55 AM 66.4 °F - 64.8 °F 95% 29.85 in 0.2 mi Calm Calm - N/A Fog Fog
6:15 AM 66.6 °F - 64.9 °F 95% 29.85 in 0.2 mi Calm Calm - N/A Fog Fog
6:35 AM 67.1 °F - 65.3 °F 94% 29.85 in 0.2 mi Calm Calm - N/A Fog Fog
6:55 AM 67.3 °F - 65.7 °F 95% 29.85 in 0.2 mi South 3.5 mph - N/A Fog Fog
7:15 AM 67.6 °F - 66.2 °F 95% 29.85 in 0.2 mi South 4.6 mph - N/A Fog Fog
7:35 AM 68.2 °F - 66.6 °F 95% 29.85 in 0.2 mi South 4.6 mph - N/A Fog Fog
7:55 AM 68.9 °F - 67.3 °F 95% 29.85 in 3.0 mi South 4.6 mph - N/A   Mostly Cloudy
8:35 AM 71.6 °F - 68.5 °F 90% 29.85 in 10.0 mi South 4.6 mph - N/A   Clear
9:35 AM 76.5 °F - 70.0 °F 80% 29.87 in 10.0 mi SSE 5.8 mph - N/A   Scattered Clouds
9:55 AM 76.6 °F - 69.8 °F 79% 29.87 in 10.0 mi SSW 5.8 mph - N/A   Mostly Cloudy
10:15 AM 77.4 °F - 70.0 °F 78% 29.87 in 10.0 mi SSW 5.8 mph - N/A   Mostly Cloudy
10:35 AM 79.0 °F - 69.8 °F 73% 29.86 in 10.0 mi SSW 5.8 mph - N/A   Scattered Clouds
10:55 AM 79.7 °F - 69.8 °F 72% 29.86 in 10.0 mi SW 3.5 mph - N/A   Clear
11:15 AM 80.6 °F 83.9 °F 70.0 °F 70% 29.85 in 10.0 mi South 6.9 mph - N/A   Clear
11:35 AM 81.9 °F 85.8 °F 70.3 °F 68% 29.84 in 10.0 mi SE 4.6 mph - N/A   Scattered Clouds
11:55 AM 82.9 °F 87.5 °F 71.1 °F 67% 29.84 in 10.0 mi South 8.1 mph - N/A   Clear
12:15 PM 84.0 °F 89.3 °F 71.4 °F 66% 29.83 in 10.0 mi South 6.9 mph - N/A   Clear
12:35 PM 83.7 °F 88.6 °F 71.4 °F 66% 29.83 in 10.0 mi South 6.9 mph - N/A   Mostly Cloudy
12:55 PM 84.6 °F 90.0 °F 71.8 °F 65% 29.82 in 10.0 mi SSE 5.8 mph - N/A   Scattered Clouds
1:15 PM 84.4 °F 89.7 °F 71.6 °F 65% 29.82 in 10.0 mi South 5.8 mph - N/A   Scattered Clouds
1:35 PM 85.5 °F 91.5 °F 72.0 °F 64% 29.82 in 10.0 mi South 4.6 mph - N/A   Mostly Cloudy
1:55 PM 86.5 °F 93.8 °F 73.2 °F 64% 29.81 in 10.0 mi South 9.2 mph - N/A   Mostly Cloudy
2:15 PM 86.0 °F 92.6 °F 72.7 °F 64% 29.81 in 10.0 mi South 10.4 mph - N/A   Scattered Clouds
2:35 PM 87.4 °F 96.2 °F 74.3 °F 65% 29.80 in 10.0 mi SSE 9.2 mph - N/A   Scattered Clouds
2:55 PM 86.9 °F 94.5 °F 73.2 °F 64% 29.80 in 10.0 mi South 10.4 mph - N/A   Scattered Clouds
3:15 PM 87.3 °F 94.0 °F 72.3 °F 61% 29.79 in 10.0 mi South 9.2 mph - N/A   Scattered Clouds
3:35 PM 88.2 °F 94.1 °F 71.2 °F 57% 29.79 in 10.0 mi SSW 10.4 mph - N/A   Scattered Clouds
3:55 PM 89.4 °F 97.3 °F 72.7 °F 58% 29.79 in 10.0 mi SSW 13.8 mph - N/A   Scattered Clouds
4:35 PM 89.1 °F 95.0 °F 71.2 °F 55% 29.79 in 10.0 mi SW 9.2 mph 16.1 mph N/A   Clear
4:55 PM 87.6 °F 93.1 °F 70.7 °F 57% 29.78 in 10.0 mi SSW 8.1 mph - N/A   Scattered Clouds
5:15 PM 88.7 °F 94.8 °F 71.2 °F 56% 29.77 in 10.0 mi SW 9.2 mph - N/A   Scattered Clouds
5:35 PM 89.2 °F 95.4 °F 71.2 °F 55% 29.77 in 10.0 mi SSW 10.4 mph - N/A   Clear
5:55 PM 88.7 °F 94.3 °F 70.9 °F 55% 29.77 in 10.0 mi SSW 10.4 mph - N/A   Clear
6:15 PM 88.7 °F 94.3 °F 70.9 °F 55% 29.76 in 10.0 mi SSW 8.1 mph 17.3 mph N/A   Clear
6:55 PM 86.7 °F 91.7 °F 70.3 °F 58% 29.76 in 10.0 mi SSW 10.4 mph - N/A   Scattered Clouds
7:15 PM 85.6 °F 90.8 °F 70.9 °F 61% 29.77 in 10.0 mi SW 8.1 mph - N/A   Scattered Clouds
7:35 PM 83.3 °F 88.2 °F 71.4 °F 67% 29.76 in 10.0 mi SSW 8.1 mph - N/A   Clear
7:55 PM 82.8 °F 87.4 °F 71.4 °F 68% 29.77 in 10.0 mi SSW 5.8 mph - N/A   Clear
8:15 PM 81.0 °F 85.2 °F 72.1 °F 74% 29.77 in 10.0 mi SSW 4.6 mph - N/A   Clear
8:35 PM 79.9 °F - 72.3 °F 78% 29.77 in 10.0 mi SSW 5.8 mph - N/A   Clear
8:55 PM 79.0 °F - 72.5 °F 80% 29.78 in 10.0 mi SW 3.5 mph - N/A   Clear
9:15 PM 80.8 °F 84.9 °F 71.8 °F 74% 29.81 in 10.0 mi NW 3.5 mph - N/A   Clear
9:35 PM 79.0 °F - 61.0 °F 54% 29.85 in 10.0 mi NNW 18.4 mph 33.4 mph 0.01 in   Mostly Cloudy
9:55 PM 76.5 °F - 58.3 °F 53% 29.87 in 10.0 mi NNW 18.4 mph - 0.01 in   Mostly Cloudy
10:15 PM 75.7 °F - 58.5 °F 55% 29.90 in 10.0 mi NNW 11.5 mph - N/A   Mostly Cloudy
10:35 PM 74.3 °F - 59.0 °F 59% 29.87 in 10.0 mi North 4.6 mph - N/A   Scattered Clouds
10:55 PM 72.3 °F - 61.0 °F 67% 29.87 in 10.0 mi ENE 5.8 mph - N/A   Clear
11:15 PM 70.9 °F - 62.6 °F 75% 29.85 in 10.0 mi East 5.8 mph - N/A   Clear
11:35 PM 70.3 °F - 63.5 °F 79% 29.83 in 10.0 mi Calm Calm - N/A   Scattered Clouds
11:55 PM 69.3 °F - 62.4 °F 79% 29.76 in 10.0 mi SSE 10.4 mph - N/A   Clear